Regional Weather Roundup
Issued by NWS Bismarck, ND

Home | Current Version | Previous Version | Text Only | Print | Product List | Glossary On
Versions: 1 2 3 4 5 6 7 8 9 10 11 12 13 14 15 16 17 18 19 20 21 22 23 24 25 26 27 28 29 30 31 32 33 34 35 36 37 38 39 40 41 42 43 44 45 46 47 48 49 50
000
ASUS43 KBIS 061410
RWRBIS

NWR BROADCAST TEXT
NATIONAL WEATHER SERVICE BISMARCK ND
900 AM CDT WED MAY 06 2015

NOTE: "FAIR" INDICATES FEW OR NO CLOUDS BELOW 12,000 FEET WITH NO
SIGNIFICANT WEATHER AND/OR OBSTRUCTIONS TO VISIBILITY.


CITY           SKY/WX    TMP DP  RH WIND       PRES   REMARKS
WILLISTON      PTSUNNY   60  53  77 S12       29.70R
MINOT          CLOUDY    60  56  86 SE15      29.76F
MINOT AFB      CLOUDY    62  62 100 S18       29.75S
BISMARCK       LGT RAIN  59  58  96 SE10      29.78F FOG
DICKINSON      CLOUDY    57  54  89 SE16      29.73S
GARRISON         N/A     59  57  93 S15       29.77S
HETTINGER ARPT LGT RAIN  56  53  90 SE13      29.75F FOG
JAMESTOWN      LGT RAIN  57  55  93 SE13      29.85F FOG
BEACH          CLOUDY    54  54 100 S13       29.74R FOG
CARRINGTON     FOG       55  55 100 SE20      29.85F VSB 1/4
CROSBY         FAIR      59  59 100 S16       29.70R
HARVEY         CLOUDY    59  59 100 SE15      29.81F FOG
HAZEN          PTSUNNY   59  57  94 SE15      29.77F FOG
LINTON         FOG       59  59 100 SE13G18   29.78F VSB 1
MANDAN         LGT RAIN  57  57 100 SE9       29.79F
OAKES            N/A     57  57 100 E14       29.86F FOG
STANLEY        FAIR      57  57 100 S21       29.74F
WATFORD CITY   PTSUNNY   57  54  88 S18       29.70S
$$

CITY           SKY/WX    TMP DP  RH WIND       PRES   REMARKS
GRAND FORKS    CLOUDY    60  56  86 S18G25    29.90F
GRAND FORKS AF CLOUDY    59  55  85 S15G22    29.90S
DEVILS LAKE    CLOUDY    57  54  88 S12       29.85F
FARGO          LGT RAIN  60  55  83 SE20G30   29.91F
CANDO          PTSUNNY   59  57  94 S17       29.84F FOG
CAVALIER       PTSUNNY   61  55  82 S13       29.89F
GRAFTON        CLOUDY    61  59  94 SE16G22   29.90F
GWINNER        CLOUDY    57  57 100 SE18      29.89F
LANGDON        CLOUDY    57  57 100 SE15      29.87F FOG
WALHALLA       FAIR      59  59 100 S12       29.87F
$$

CITY           SKY/WX    TMP DP  RH WIND       PRES   REMARKS
ABERDEEN       RAIN      62  59  90 SE13      29.84S FOG
MOBRIDGE       CLOUDY    62  58  86 SE15      29.74F
BUFFALO          N/A     55  54  96 SE10      29.66F
RAPID CITY     LGT RAIN  54  53  97 SE8       29.71S FOG
GLASGOW        CLOUDY    53  44  71 NW15      29.74R
SIDNEY         PTSUNNY   59  52  77 S6        29.69S
WOLF POINT     PTSUNNY   58  47  66 N12G20    29.69R
GLENDIVE       PTSUNNY   57  48  72 W9        29.72R
MILES CITY     CLOUDY    56  46  69 N15       29.73R
BAKER          CLOUDY    55  51  86 SE14      29.72S
$$

CITY           SKY/WX    TMP DP  RH WIND       PRES   REMARKS
BILLINGS       CLOUDY    48  41  76 N12G22    29.81R
GREAT FALLS    MOSUNNY   42  33  70 N9        29.93R
REGINA         MOSUNNY   57  50  77 SE9       29.69R
ESTEVAN        CLOUDY    61  54  77 S17G24    29.70S
$$




USA.gov is the U.S. government's official web portal to all federal, state and local government web resources and services.